{"data":{"norad_id":49425,"intl_designator":"2021-104T","name":"STARLINK-3139","alt_names":[],"object_type":"PAYLOAD","status":"ACTIVE","operator":null,"country":"US","launch_date":"2021-11-13","launch_site_code":"AFETR","launch_vehicle":null,"mission":null,"orbit_class":"UNKNOWN","rcs_meters":null,"size_class":null,"mass_kg":null,"dimensions":null,"purposes":["comms"],"wikipedia_slug":null,"has_3d_model":false,"image_url":null,"decayed_at":null,"tle_current":{"epoch":"2026-09-20T01:14:33.492192Z","epoch_age_seconds":80036,"freshness":"FRESH","line1":"1 49425U 21104T   26263.05177653 -.00000788  00000+0 -13650-4 0  9998","line2":"2 49425  53.1613  62.9191 0001160  83.2818 276.8315 15.31691446268166","mean_motion":15.31691446,"eccentricity":0.000116,"inclination_deg":53.1613,"raan_deg":62.9191,"arg_perigee_deg":83.2818,"mean_anomaly_deg":276.8315,"bstar":-1.365e-5,"rev_number":26816,"period_min":94.013712994255,"perigee_km":469.97102168386,"apogee_km":471.55996706255,"semimajor_km":6848.9024943732,"source":"CELESTRAK","updated_at":"2026-09-20T09:00:39.258258Z"}}}